Home > Weather > Luckenwalde > Past weeks

Flag for Germany Past Weather in Luckenwalde, Brandenburg, Germany — Yesterday and Last 2 Weeks

Now
55 °F

Partly sunny.


Feels Like: 55 °F
Forecast: 49 / 79 °F
Wind: 5 mph from Northwest

Location: Holzdorf

Current Time: Aug 30, 2016 at 9:25:18 AM

Latest Report: Aug 30, 2016 at 8:20 AM


Visibility: N/A

Pressure: 30.30 "Hg

Humidity: 88%

Dew Point: 52 °F

Location of LuckenwaldeLocation

Past Weather in Luckenwalde — Graph

°F

Luckenwalde Temperature Yesterday

Maximum temperature yesterday: 77 °F (at 2:20 PM)
Minimum temperature yesterday: 63 °F (at 11:20 PM)
Average temperature yesterday: 69 °F

High & Low Weather Summary for the Past Weeks

 TemperatureHumidityPressure
High95 °F (Aug 28, 3:20 PM)100% (Aug 16, 3:20 AM)30.33 "Hg (Aug 16, 3:20 AM)
Low41 °F (Aug 18, 5:20 AM)22% (Aug 28, 4:20 PM)29.80 "Hg (Aug 18, 2:20 PM)
Average66 °F68%30.06 "Hg
* Reported Aug 15 7:20 AM — Aug 30 7:20 AM, Luckenwalde, Weather by CustomWeather, © 2016

Note: Actual official high and low records may vary slightly from our data, if they occured in-between our weather recording intervals... More about our weather records

Advertising

Luckenwalde Weather History for the Previous 24 Hours

Scroll right to see more
 ConditionsComfort  
Time TempWeatherWind HumidityBarometerVisibility
7:20 AM
Tue, Aug 30
52 °FFog.3 mph94%30.27 "HgN/A
6:20 AM48 °FFog.1 mph100%30.24 "HgN/A
5:20 AM52 °FFog.3 mph94%30.24 "HgN/A
4:20 AM54 °FCool.2 mph88%30.24 "HgN/A
3:20 AM54 °FPassing clouds.2 mph88%30.21 "HgN/A
2:20 AM57 °FPassing clouds.2 mph77%30.21 "HgN/A
1:20 AM57 °FPassing clouds.5 mph82%30.21 "HgN/A
12:20 AM61 °FPassing clouds.7 mph77%30.18 "HgN/A
11:20 PM
Mon, Aug 29
63 °FPassing clouds.6 mph73%30.15 "HgN/A
10:20 PM64 °FPassing clouds.6 mph68%30.12 "HgN/A
9:20 PM64 °FPassing clouds.5 mph68%30.12 "HgN/A
8:20 PM66 °FScattered clouds.7 mph68%30.09 "HgN/A
7:20 PM70 °FPartly sunny.7 mph57%30.07 "HgN/A
6:20 PM72 °FPartly sunny.8 mph53%30.04 "HgN/A
5:20 PM73 °FPartly sunny.13 mph53%30.04 "HgN/A
4:20 PM75 °FPartly sunny.14 mph47%30.01 "HgN/A
3:20 PM73 °FPartly sunny.15 mph53%30.01 "HgN/A
2:20 PM77 °FScattered clouds.14 mph47%30.01 "HgN/A
1:20 PM75 °FScattered clouds.13 mph47%30.01 "HgN/A
12:20 PM75 °FPassing clouds.15 mph47%30.01 "HgN/A
11:20 AM73 °FScattered clouds.13 mph53%30.01 "HgN/A
10:20 AM72 °FPassing clouds.17 mph53%30.01 "HgN/A
9:20 AM72 °FPassing clouds.13 mph61%30.01 "HgN/A
Weather by CustomWeather, © 2016

See weather overviewHow to use our weather pages